Ketchikan, AK

8:42 AM AKDT on October 16, 2018 (GMT -0800)
Ketchikan International

Weather History for PAKT - September, 2018

Change the Weather History Date:

Tuesday, September 11, 2018

  Actual Average Record
Temperature  
Mean Temperature 57 °F -  
Max Temperature 66 °F 60 °F 77 °F (1950)
Min Temperature 50 °F 46 °F 34 °F (1986)
Degree Days  
Heating Degree Days 8    
Growing Degree Days 7 (Base 50)    
Moisture  
Dew Point 51 °F    
Average Humidity 83    
Maximum Humidity 94    
Minimum Humidity 63    
Precipitation  
Precipitation 0.00 in - - ()
Sea Level Pressure  
Sea Level Pressure 29.90 in    
Wind  
Wind Speed 4 mph (South)    
Max Wind Speed 10 mph    
Max Gust Speed -    
Visibility 10 miles    
Events      
Averages and records for this station are not official NWS values.
T = Trace of Precipitation, MM = Missing Value Source: NWS Daily Summary

Daily Weather History Graph

Daily Weather History Graph

Search for Another Location

Airport or City:

Astronomy

Sep. 11, 2018 Rise Set
Actual Time 6:11 AM AKDT 7:13 PM AKDT
Civil Twilight 5:34 AM AKDT 7:50 PM AKDT
Nautical Twilight 4:48 AM AKDT 8:36 PM AKDT
Astronomical Twilight 3:58 AM AKDT 9:25 PM AKDT
Moon 8:36 AM AKDT (9/11) 8:27 PM AKDT (9/11)
Length of Visible Light 14h 16m
Length of Day
13h 01m
Waxing Crescent, 6% of the Moon is Illuminated
Sep 11
Waxing Crescent
Sep 16
First Quarter
Sep 24
Full
Oct 2
Last Quarter
Oct 8
New

Hourly Weather History & Observations

Time (AKDT) Temp. Dew Point Humidity Pressure Visibility Wind Dir Wind Speed Gust Speed Precip Events Conditions
12:53 AM 50.0 °F 48.0 °F 93% 29.84 in 10.0 mi Calm Calm - N/A   Scattered Clouds
1:53 AM 51.1 °F 48.0 °F 89% 29.85 in 10.0 mi Calm Calm - N/A   Overcast
2:53 AM 52.0 °F 48.9 °F 89% 29.86 in 10.0 mi NW 4.6 mph - N/A   Overcast
3:53 AM 52.0 °F 48.9 °F 89% 29.86 in 10.0 mi WNW 3.5 mph - N/A   Overcast
4:53 AM 51.1 °F 48.9 °F 92% 29.86 in 10.0 mi NW 8.1 mph - N/A   Overcast
5:53 AM 51.1 °F 48.9 °F 92% 29.87 in 10.0 mi West 3.5 mph - N/A   Mostly Cloudy
6:53 AM 50.0 °F 48.2 °F 94% 29.89 in 10.0 mi Calm Calm - N/A   Mostly Cloudy
7:53 AM 51.8 °F 50.0 °F 94% 29.90 in 10.0 mi NW 4.6 mph - N/A   Mostly Cloudy
8:53 AM 53.6 °F 50.0 °F 88% 29.91 in 10.0 mi NNW 5.8 mph - N/A   Scattered Clouds
9:53 AM 57.9 °F 52.0 °F 81% 29.91 in 10.0 mi NW 8.1 mph - N/A   Scattered Clouds
10:53 AM 60.8 °F 51.8 °F 72% 29.91 in 10.0 mi NNW 6.9 mph - N/A   Scattered Clouds
11:53 AM 61.0 °F 52.0 °F 72% 29.92 in 10.0 mi NNW 5.8 mph - N/A   Partly Cloudy
12:53 PM 62.1 °F 51.1 °F 67% 29.92 in 10.0 mi North 4.6 mph - N/A   Partly Cloudy
1:53 PM 64.4 °F 51.8 °F 64% 29.92 in 10.0 mi ESE 8.1 mph - N/A   Clear
2:53 PM 64.9 °F 52.0 °F 63% 29.91 in 10.0 mi ESE 10.4 mph - N/A   Clear
3:53 PM 62.6 °F 50.0 °F 63% 29.91 in 10.0 mi ESE 9.2 mph - N/A   Clear
4:53 PM 62.6 °F 51.8 °F 68% 29.91 in 10.0 mi ESE 8.1 mph - N/A   Clear
5:53 PM 60.8 °F 51.8 °F 72% 29.91 in 10.0 mi SSE 3.5 mph - N/A   Clear
6:53 PM 55.4 °F 50.0 °F 82% 29.91 in 10.0 mi South 3.5 mph - N/A   Clear
7:53 PM 54.0 °F 50.0 °F 86% 29.92 in 10.0 mi South 4.6 mph - N/A   Clear
8:53 PM 53.1 °F 51.1 °F 93% 29.92 in 10.0 mi SSE 5.8 mph - N/A   Clear
9:42 PM 53.1 °F 51.1 °F 93% 29.92 in 9.0 mi South 3.5 mph - N/A   Scattered Clouds
9:50 PM 53.6 °F 51.8 °F 94% 29.92 in 8.0 mi SSE 5.8 mph - N/A   Mostly Cloudy
9:53 PM 53.1 °F 51.1 °F 93% 29.93 in 9.0 mi SSE 4.6 mph - N/A   Mostly Cloudy
10:53 PM 54.0 °F 52.0 °F 93% 29.93 in 10.0 mi SSE 5.8 mph - N/A   Overcast
11:53 PM 54.0 °F 52.0 °F 93% 29.94 in 10.0 mi SE 8.1 mph - N/A   Overcast